C6024 KECG-KECG

Flight info

Callsign C6024
Flight time N/A
Altitude 3000
Route /
Aircraft H60/L-VGD/C

Departure

Time 2026-05-06 00:10
Airport Elizabeth City Regional Airport & Coast Guard Air Station (KECG)

Arrival

Time N/A
Airport Elizabeth City Regional Airport & Coast Guard Air Station (KECG)
Time Latitude Longitude Altitude Speed Heading
2026-05-06 00:01 36.26240 -76.17209 16 ft 0 kts 275°
2026-05-06 00:07 36.26242 -76.17210 26 ft 3 kts 270°
2026-05-06 00:07 36.26323 -76.17374 111 ft 42 kts 305°
2026-05-06 00:07 36.26681 -76.17738 393 ft 77 kts 315°
2026-05-06 00:07 36.27153 -76.18085 469 ft 85 kts 316°
2026-05-06 00:08 36.27642 -76.18454 490 ft 84 kts 316°
2026-05-06 00:08 36.28148 -76.18931 490 ft 103 kts 316°
2026-05-06 00:08 36.28766 -76.19531 491 ft 121 kts 316°
2026-05-06 00:08 36.29443 -76.20237 492 ft 132 kts 316°
2026-05-06 00:09 36.30187 -76.20974 497 ft 141 kts 315°
2026-05-06 00:09 36.30975 -76.21751 497 ft 147 kts 316°
2026-05-06 00:09 36.31791 -76.22534 507 ft 150 kts 316°
2026-05-06 00:09 36.32615 -76.23317 534 ft 143 kts 316°
2026-05-06 00:10 36.33343 -76.24056 864 ft 129 kts 316°
2026-05-06 00:10 36.34040 -76.24700 1236 ft 123 kts 316°
2026-05-06 00:10 36.34751 -76.25313 1552 ft 127 kts 316°
2026-05-06 00:10 36.35487 -76.25954 1799 ft 132 kts 316°
2026-05-06 00:11 36.36250 -76.26637 1970 ft 139 kts 316°
2026-05-06 00:11 36.37012 -76.27330 2185 ft 133 kts 316°
2026-05-06 00:11 36.37758 -76.27990 2475 ft 133 kts 316°
2026-05-06 00:11 36.38543 -76.28680 2461 ft 144 kts 316°
2026-05-06 00:12 36.39379 -76.29428 2371 ft 151 kts 316°
2026-05-06 00:12 36.40247 -76.30194 1985 ft 159 kts 316°
2026-05-06 00:12 36.41156 -76.31021 1692 ft 161 kts 316°
2026-05-06 00:12 36.42043 -76.31836 1595 ft 156 kts 316°
2026-05-06 00:13 36.42911 -76.32629 1579 ft 153 kts 316°
2026-05-06 00:13 36.43762 -76.33402 1674 ft 150 kts 316°
2026-05-06 00:13 36.44595 -76.34162 1806 ft 147 kts 316°
2026-05-06 00:13 36.45416 -76.34898 1975 ft 145 kts 316°
2026-05-06 00:14 36.46238 -76.35615 2148 ft 144 kts 316°
2026-05-06 00:14 36.47062 -76.36317 2323 ft 143 kts 316°
2026-05-06 00:14 36.47886 -76.37016 2486 ft 143 kts 316°
2026-05-06 00:14 36.48705 -76.37721 2612 ft 143 kts 316°
2026-05-06 00:15 36.49523 -76.38428 2699 ft 143 kts 316°
2026-05-06 00:15 36.50345 -76.39138 2768 ft 144 kts 316°
2026-05-06 00:15 36.51156 -76.39844 2837 ft 145 kts 316°
2026-05-06 00:15 36.51982 -76.40562 2890 ft 145 kts 316°
2026-05-06 00:16 36.52820 -76.41274 2930 ft 147 kts 316°
2026-05-06 00:16 36.53679 -76.41987 2912 ft 149 kts 321°
2026-05-06 00:16 36.54555 -76.42676 2886 ft 149 kts 317°
2026-05-06 00:16 36.55431 -76.43349 2857 ft 148 kts 317°
2026-05-06 00:17 36.56301 -76.44023 2864 ft 147 kts 317°
2026-05-06 00:17 36.57169 -76.44695 2874 ft 146 kts 317°
2026-05-06 00:17 36.58026 -76.45377 2890 ft 146 kts 317°
2026-05-06 00:17 36.58880 -76.46065 2929 ft 146 kts 317°
2026-05-06 00:18 36.59735 -76.46749 2995 ft 146 kts 317°
2026-05-06 00:18 36.60593 -76.47420 3060 ft 146 kts 317°
2026-05-06 00:18 36.61454 -76.48092 3113 ft 146 kts 317°
2026-05-06 00:18 36.62319 -76.48749 3169 ft 146 kts 317°
2026-05-06 00:19 36.63188 -76.49400 3209 ft 145 kts 317°
2026-05-06 00:19 36.64054 -76.50053 3189 ft 144 kts 317°
2026-05-06 00:19 36.64919 -76.50725 3058 ft 148 kts 318°
2026-05-06 00:19 36.65785 -76.51432 2972 ft 149 kts 317°
2026-05-06 00:20 36.66652 -76.52140 2929 ft 149 kts 317°
2026-05-06 00:20 36.67519 -76.52853 2908 ft 149 kts 318°
2026-05-06 00:20 36.68391 -76.53562 2885 ft 150 kts 317°
2026-05-06 00:20 36.69267 -76.54234 2871 ft 150 kts 318°
2026-05-06 00:21 36.70150 -76.54905 2860 ft 150 kts 318°
2026-05-06 00:21 36.71035 -76.55591 2856 ft 149 kts 318°
2026-05-06 00:21 36.71914 -76.56279 2836 ft 149 kts 318°
2026-05-06 00:21 36.72783 -76.56975 2854 ft 149 kts 318°
2026-05-06 00:22 36.73653 -76.57674 2859 ft 149 kts 317°
2026-05-06 00:22 36.74533 -76.58352 2857 ft 149 kts 318°
2026-05-06 00:22 36.75423 -76.59034 2853 ft 150 kts 318°
2026-05-06 00:22 36.76307 -76.59725 2854 ft 150 kts 318°
2026-05-06 00:23 36.77183 -76.60400 2849 ft 150 kts 318°
2026-05-06 00:23 36.78065 -76.61089 2849 ft 149 kts 318°
2026-05-06 00:23 36.78935 -76.61786 2851 ft 149 kts 318°
2026-05-06 00:23 36.79804 -76.62488 2848 ft 149 kts 318°
2026-05-06 00:24 36.80683 -76.63177 2848 ft 150 kts 318°
2026-05-06 00:24 36.81576 -76.63859 2843 ft 150 kts 318°
2026-05-06 00:24 36.82464 -76.64544 2844 ft 150 kts 318°
2026-05-06 00:24 36.83355 -76.65234 2841 ft 150 kts 318°
2026-05-06 00:25 36.84237 -76.65908 2838 ft 150 kts 318°
2026-05-06 00:25 36.85125 -76.66586 2836 ft 149 kts 318°
2026-05-06 00:25 36.85999 -76.67281 2839 ft 149 kts 318°
2026-05-06 00:25 36.86876 -76.67987 2833 ft 150 kts 318°
2026-05-06 00:26 36.87745 -76.68679 2830 ft 150 kts 318°
2026-05-06 00:26 36.88641 -76.69393 2830 ft 151 kts 318°
2026-05-06 00:26 36.89514 -76.70087 2826 ft 151 kts 318°
2026-05-06 00:26 36.90408 -76.70778 2819 ft 150 kts 318°
2026-05-06 00:27 36.91299 -76.71451 2791 ft 149 kts 318°
2026-05-06 00:27 36.92177 -76.72128 2792 ft 147 kts 318°
2026-05-06 00:27 36.93048 -76.72803 2796 ft 147 kts 318°
2026-05-06 00:27 36.93914 -76.73470 2797 ft 146 kts 318°
2026-05-06 00:28 36.94784 -76.74141 2796 ft 147 kts 318°
2026-05-06 00:28 36.95646 -76.74826 2796 ft 147 kts 318°
2026-05-06 00:28 36.96521 -76.75513 2794 ft 149 kts 318°
2026-05-06 00:28 36.97412 -76.76187 2792 ft 150 kts 318°
2026-05-06 00:29 36.98314 -76.76862 2790 ft 152 kts 318°
2026-05-06 00:29 36.99216 -76.77553 2790 ft 152 kts 318°
2026-05-06 00:29 37.00121 -76.78242 2790 ft 152 kts 318°
2026-05-06 00:29 37.01027 -76.78927 2784 ft 151 kts 318°
2026-05-06 00:30 37.01918 -76.79611 2772 ft 150 kts 318°
2026-05-06 00:30 37.02802 -76.80294 2783 ft 149 kts 318°
2026-05-06 00:30 37.03679 -76.80962 2795 ft 149 kts 318°
2026-05-06 00:30 37.04558 -76.81641 2795 ft 148 kts 318°
2026-05-06 00:31 37.05436 -76.82323 2835 ft 148 kts 318°
2026-05-06 00:31 37.06317 -76.82995 2902 ft 148 kts 318°